Terug naar catalogus

FENGYUN 1C DEB

ActiefSSO
NORAD 33726·DEBRIS·🇨🇳 China

Gelanceerd May 10, 1999 vanaf Taiyuan Satellite Launch Center

Loading…

Volgende Passages (komende 24 uur)

TLE

VersSource: Space-Track

Epoch: Sep 14, 2026, 04:58 UTC

1 33726U 99025DHP 26257.20699402  .00000375  00000-0  18284-3 0  9991
2 33726  98.6693  18.1214 0190580 322.6996 153.9417 14.14768545958266

Volg FENGYUN 1C DEB in realtime met AllMySat

Download on the App Store